Flag Weather past 2 weeks in Port St. Lucie, Florida, U.S.A.

Now
77 °F

Partly cloudy.


Feels Like: 78 °F
Forecast: 50 / 73 °F
Wind: 8 mph from Southwest

Location: Witham Field Airport

Current Time: Nov 26, 2014 at 5:36:35 AM

Latest Report: Nov 26, 2014 at 5:15 AM


Visibility: 10 mi

Pressure: 29.92 "Hg

Humidity: 89%

Dew point: 73 °F

Location of Port St. LucieLocation

Historic Weather in Port St. Lucie — Graph

°F

Port St. Lucie temperature yesterday

Maximum temperature yesterday: 84 °F (at 10:47 AM)
Minimum temperature yesterday: 75 °F (at 12:15 AM)
Average temperature yesterday: 78 °F

Past Weeks' High & Low Weather Summary

 TemperatureHumidityPressure
High88 °F (Nov 24, 3:47 PM)100% (Nov 12, 11:55 PM)30.28 "Hg (Nov 12, 11:55 PM)
Low50 °F (Nov 19, 6:50 AM)49% (Nov 24, 3:47 PM)29.87 "Hg (Nov 11, 1:47 PM)
Average69 °F83%30.07 "Hg
* Reported Nov 11 4:15 AM — Nov 26 4:15 AM, Port St. Lucie, Weather by CustomWeather, © 2014

Note: Actual official high and low records may vary slightly from our data, if they occured in-between our weather recording intervals... More about our weather records

Advertising

Port St. Lucie weather history for previous 24 hours

 ConditionsComfort  
Time TempWeatherWind HumidityBarometerVisibility
4:15 AM
Nov 26
77 °FPassing clouds.8 mph89%29.91 "Hg10 mi
3:55 AM77 °FPassing clouds.8 mph89%29.91 "Hg10 mi
3:15 AM77 °FPassing clouds.8 mph89%29.91 "Hg10 mi
2:55 AM77 °FThundershowers. Mostly cloudy.9 mph89%29.91 "Hg10 mi
2:35 AM77 °FOvercast.7 mph89%29.92 "Hg7 mi
2:15 AM75 °FMostly cloudy.8 mph94%29.92 "Hg7 mi
1:55 AM75 °FPartly cloudy.8 mph94%29.92 "Hg7 mi
1:35 AM75 °FPassing clouds.9 mph94%29.92 "Hg7 mi
1:15 AM75 °FPassing clouds.8 mph94%29.92 "Hg7 mi
12:55 AM75 °FPassing clouds.7 mph94%29.92 "Hg7 mi
12:35 AM75 °FPassing clouds.8 mph89%29.92 "Hg7 mi
12:15 AM75 °FPassing clouds.7 mph89%29.92 "Hg10 mi
11:55 PM
Nov 25
75 °FPassing clouds.6 mph89%29.93 "Hg10 mi
11:35 PM75 °FClear.6 mph89%29.94 "Hg10 mi
11:15 PM75 °FClear.6 mph89%29.95 "Hg10 mi
10:35 PM75 °FPassing clouds.7 mph89%29.96 "Hg10 mi
9:55 PM77 °FOvercast.8 mph83%29.96 "Hg10 mi
9:35 PM77 °FOvercast.7 mph83%29.97 "Hg10 mi
9:15 PM77 °FMostly cloudy.7 mph83%29.97 "Hg10 mi
8:55 PM77 °FPassing clouds.7 mph83%29.97 "Hg10 mi
8:35 PM77 °FPassing clouds.8 mph83%29.97 "Hg10 mi
8:15 PM77 °FClear.7 mph83%29.97 "Hg10 mi
7:55 PM77 °FClear.9 mph83%29.96 "Hg10 mi
7:35 PM77 °FClear.8 mph83%29.96 "Hg10 mi
7:15 PM77 °FClear.10 mph83%29.95 "Hg10 mi
5:47 PM79 °FPartly cloudy.14 mph79%29.94 "Hg7 mi
4:47 PM81 °FBroken clouds.14 mph74%29.93 "Hg7 mi
3:47 PM84 °FBroken clouds.14 mph62%29.92 "Hg7 mi
2:47 PM84 °FBroken clouds.14 mph62%29.93 "Hg7 mi
1:47 PM84 °FBroken clouds.15 mph62%29.94 "Hg7 mi
12:47 PM84 °FBroken clouds.14 mph62%29.97 "Hg7 mi
11:47 AM84 °FWarm.7 mph62%30.00 "HgN/A
10:47 AM84 °FScattered clouds.18 mph66%30.02 "Hg7 mi
9:47 AM82 °FFog.18 mph70%30.03 "Hg6 mi
8:47 AM81 °FFog.14 mph79%30.04 "Hg6 mi
7:55 AM77 °FFog.9 mph94%30.04 "Hg5 mi
6:47 AM75 °FFog.9 mph94%30.02 "Hg5 mi
5:15 AM75 °FOvercast.6 mph94%30.02 "Hg7 mi
Weather by CustomWeather, © 2014

See weather overviewHow to use our weather pages